SCP
0 0 1 1 1 1 1 1 1 2 2 1 1 2 2 2 2 2 2 2 2 2 2 2 2 2 3 4 4 4 4 4 4 4 6 6 6 6 6 5 4 3 2 2
1 0 1 1 1 1 2 2 2 2 2 1 1 2 2 2 3 3 2 2 2 2 2 2 2 3 4 5 5 5 4 4 4 4 5 5 5 5 5 4 4 3 2 2
1 1 1 1 1 1 2 2 2 2 2 2 2 2 3 3 3 3 3 3 3 2 2 2 2 3 5 6 6 4 4 3 4 4 4 4 4 4 4 3 3 3 3 2
1 1 0 0 1 1 1 2 2 2 2 2 3 3 3 3 3 4 4 4 3 2 2 2 2 3 5 6 5 4 4 4 4 4 4 4 4 4 4 4 3 3 3 3
1 1 0 0 1 1 1 2 2 3 3 3 3 4 5 4 4 3 4 4 4 3 3 3 3 3 4 6 7 7 6 5 5 5 5 5 4 4 4 4 4 4 3 3
0 0 0 0 0 1 1 2 2 2 3 3 3 4 5 5 4 4 4 4 4 5 5 5 5 4 5 7 10 10 8 6 6 6 6 6 5 4 4 4 4 4 3 3
0 0 0 0 0 1 1 1 1 1 2 3 3 4 5 5 4 4 4 4 4 5 7 7 7 6 8 10 12 10 7 6 6 7 7 6 5 4 4 3 3 3 2 2
0 0 0 0 1 1 1 1 1 2 2 3 4 5 5 4 4 4 3 4 4 6 9 9 8 7 9 11 10 8 6 5 6 7 8 7 6 5 4 3 3 3 2 2
0 0 0 0 1 1 1 1 1 2 3 4 6 5 4 3 3 3 3 4 6 8 10 10 8 7 8 9 8 7 5 5 6 8 8 7 6 5 4 3 3 3 3 3
0 0 1 1 1 1 1 1 2 3 4 5 5 5 4 3 3 3 3 5 7 9 11 10 7 5 5 6 7 6 6 6 6 7 7 6 5 5 4 3 3 3 3 3
0 0 1 1 1 2 1 1 2 3 4 4 4 4 4 3 3 4 4 5 6 8 9 8 6 4 4 5 6 6 6 6 5 6 6 5 5 4 4 3 3 3 3 3
0 1 1 1 2 2 2 2 2 3 4 4 4 4 4 3 3 4 5 5 5 6 7 6 5 5 5 5 6 5 5 5 5 4 4 4 4 4 3 2 1 2 2 2
1 1 2 2 2 2 3 3 4 4 5 5 4 4 3 3 3 4 5 5 5 6 6 6 6 5 5 5 5 5 5 4 5 5 5 5 4 3 2 1 1 1 1 1
2 2 3 3 3 3 3 4 4 5 5 5 4 4 4 3 3 4 4 4 5 5 6 6 5 5 5 4 4 4 4 4 5 6 6 5 4 4 3 2 2 2 2 1
3 3 3 3 3 3 4 4 4 5 6 6 5 4 4 4 4 4 5 5 5 5 5 5 4 4 3 3 3 4 4 4 5 6 6 5 4 4 3 3 4 4 4 3
4 4 4 3 3 3 3 3 4 5 7 7 5 4 4 4 4 4 5 5 5 5 4 4 4 3 2 2 3 3 3 3 3 4 5 5 5 5 4 4 4 5 6 6
4 4 4 3 3 3 2 3 4 5 6 5 4 4 4 4 4 4 5 5 5 5 4 4 3 3 2 2 2 3 3 3 3 4 5 5 6 6 5 4 4 5 6 6
5 5 4 3 3 3 4 4 4 5 4 4 3 4 4 4 4 3 4 4 4 4 4 4 3 3 3 3 3 3 3 3 4 4 5 5 6 7 7 6 5 4 5 5
9 7 6 4 4 5 5 5 4 4 4 4 4 4 4 4 3 3 3 3 3 3 3 2 3 3 3 3 3 4 4 4 4 4 4 5 6 8 8 7 6 4 4 4
9 7 6 5 5 5 4 4 4 4 4 4 3 3 3 3 2 2 2 2 2 1 1 1 1 2 2 2 3 3 3 3 3 3 3 4 6 7 8 8 8 6 4 4
5 4 3 3 3 2 2 2 2 3 3 3 2 2 2 2 1 1 1 1 0 0 0 0 0 1 1 1 1 2 2 2 2 2 2 3 4 6 8 9 9 7 5 4
2 1 1 1 0 0 0 0 1 1 2 1 1 1 1 1 0 0 0 0 0 0 0 0 0 0 0 0 0 0 0 1 1 1 1 2 3 4 6 8 9 8 7 6
0 0 0 0 0 0 0 0 0 0 0 0 0 0 0 0 0 0 0 0 0 0 0 0 0 0 0 0 0 0 0 0 0 0 1 1 2 3 4 6 8 9 8 8
0 0 0 0 0 0 0 0 0 0 0 0 0 0 0 0 0 0 0 0 0 0 0 0 0 0 0 0 0 0 0 0 0 0 1 1 2 2 3 5 7 8 8 8
1 1 0 0 0 0 0 0 0 0 0 0 0 0 0 0 0 0 0 0 0 0 0 0 0 0 0 0 0 0 0 0 0 1 1 1 1 2 3 4 5 6 6 6
2 1 1 0 0 0 0 0 0 0 0 0 0 0 0 0 0 0 0 0 0 0 0 0 0 0 0 0 0 0 0 0 0 0 1 1 1 2 2 3 4 4 4 4
2 2 1 0 0 0 0 0 0 0 0 0 0 0 0 0 0 0 0 0 0 0 0 0 0 0 0 0 0 0 0 0 0 0 0 1 1 1 2 3 3 4 4 4
Wind_Speed
4 3 3 3 3 6 5 8 9 8 7 9 7 6 5 4 4 3 2 2 4 4 4 4 4 4 5 5 6 6 7 7 6 5 5 5 5 5 5 5 5 4 4 3
1 1 2 2 2 4 4 4 5 3 6 6 3 2 3 3 4 4 4 3 3 4 5 5 6 5 5 5 5 6 7 6 5 5 5 5 5 5 5 4 4 4 4 4
2 1 2 3 5 5 4 3 6 7 8 2 2 3 4 4 4 5 5 3 2 3 5 6 6 6 6 6 5 6 6 6 5 5 5 5 5 5 5 5 4 4 4 4
3 3 5 8 3 3 4 2 3 4 3 3 4 3 1 2 4 4 4 3 3 2 2 3 3 4 4 5 6 7 6 6 6 6 6 5 5 5 5 4 4 4 4 4
5 4 4 5 1 3 4 3 2 3 2 2 2 4 2 0 2 3 2 2 3 2 2 2 3 4 5 4 5 6 6 6 6 7 6 6 6 6 5 4 4 4 4 4
5 5 7 7 3 2 4 3 3 3 4 4 3 2 3 1 1 1 1 1 2 2 3 2 1 4 5 5 5 5 6 6 6 6 7 7 6 5 4 4 4 4 4 4
5 4 6 6 4 2 5 7 3 4 4 4 3 4 2 0 1 0 1 1 3 4 3 1 2 4 4 3 4 4 3 4 5 5 6 6 5 4 4 4 4 3 4 3
4 4 7 3 2 5 6 2 2 3 3 4 3 2 2 1 1 1 2 2 3 4 2 1 2 3 3 2 3 2 3 4 4 5 5 4 5 4 4 5 4 4 3 3
7 7 5 2 3 2 3 3 2 3 2 4 3 2 1 1 1 1 2 2 2 3 2 1 1 2 2 2 1 2 3 3 3 4 4 4 5 5 4 4 4 3 3 4
1 3 3 2 1 1 1 1 1 3 4 4 4 2 2 1 1 1 2 2 2 3 2 1 1 0 1 1 2 3 3 3 3 4 4 4 4 4 4 5 5 5 4 4
1 3 2 3 2 1 2 3 4 3 3 3 4 2 1 1 0 0 1 1 1 2 1 1 1 1 1 1 2 2 2 2 3 3 4 4 4 3 5 5 6 6 6 5
5 6 4 4 3 1 3 2 3 3 2 1 3 3 2 1 1 1 1 1 1 1 1 1 1 2 2 1 1 2 2 1 2 2 3 3 3 2 3 4 5 7 7 6
4 3 3 3 1 1 3 3 2 2 3 2 1 2 3 2 1 1 0 1 0 0 0 0 1 1 2 1 0 2 2 2 2 2 2 3 3 4 3 2 2 4 6 6
1 2 1 1 1 1 2 2 2 2 0 1 1 1 2 1 1 0 0 1 1 0 1 1 0 1 1 1 0 1 1 2 2 2 2 3 3 4 3 4 3 2 3 5
1 1 3 2 1 0 1 2 2 1 0 0 1 2 3 2 2 1 1 0 1 0 1 1 1 2 1 0 0 1 1 1 1 1 2 2 3 3 3 4 3 2 1 2
1 1 1 2 2 2 1 2 2 2 2 2 2 2 2 2 2 0 0 0 0 1 2 1 2 3 1 0 0 1 1 2 2 1 2 2 2 3 3 3 3 3 3 3
1 1 1 1 2 2 2 2 3 3 2 2 2 2 2 2 1 0 1 1 1 1 2 2 3 2 1 1 1 1 1 2 2 2 2 2 2 3 3 3 3 3 3 4
4 4 4 4 3 2 2 2 2 2 2 2 2 3 3 2 1 2 2 1 1 1 2 3 3 2 2 2 1 1 1 1 1 2 2 2 2 2 2 3 3 4 3 3
1 1 2 2 2 2 2 1 2 2 1 2 3 3 2 2 1 2 1 1 2 3 4 3 3 2 2 2 1 1 1 1 1 1 1 2 2 1 2 2 3 3 2 2
1 1 1 1 1 2 1 1 1 1 2 2 3 2 1 1 1 1 1 2 3 3 3 2 2 1 1 1 1 1 1 1 1 1 1 1 1 1 1 2 2 2 2 2
1 2 2 1 1 1 1 2 2 2 2 2 3 2 2 1 1 0 0 2 4 3 3 2 1 1 1 0 0 1 1 0 1 0 1 1 1 1 1 1 2 2 2 2
1 1 1 1 1 1 1 0 2 3 2 1 1 1 1 1 0 1 1 2 3 3 2 1 1 0 0 0 0 1 1 1 0 0 0 0 1 1 1 1 2 2 2 2
0 0 0 0 0 0 1 0 1 1 2 2 2 2 2 2 1 1 1 2 1 1 1 1 0 1 1 1 1 1 1 1 0 0 0 0 1 1 1 1 1 2 2 2
1 0 0 0 1 1 0 1 1 0 1 1 1 1 1 1 0 1 1 1 1 1 1 2 2 1 1 1 1 1 0 0 0 0 0 0 1 1 1 1 1 2 2 2
1 1 0 1 1 1 1 0 2 2 1 1 1 1 1 0 1 1 0 1 1 2 2 2 3 2 2 1 1 1 1 1 0 0 0 0 1 1 1 1 1 1 1 1
1 1 0 0 1 1 1 2 2 1 1 1 1 2 2 2 1 1 1 2 3 3 2 2 2 2 2 2 1 1 1 1 1 1 0 0 1 1 1 1 1 1 0 0
2 2 2 2 2 2 2 2 2 1 1 1 1 2 2 2 2 2 3 3 3 3 2 2 2 2 2 2 2 1 1 1 0 0 0 0 0 0 0 0 0 0 0 0
Wind_Direction
203 210 179 184 187 173 173 177 177 212 219 242 231 215 210 197 172 162 174 176 180 178 179 171 169 182 185 184 179 172 176 188 194 190 183 179 176 172 170 170 172 171 170 172
154 216 184 194 231 188 191 182 194 200 249 254 245 182 175 174 162 173 187 195 193 178 175 180 184 184 178 182 177 168 181 191 186 177 179 179 178 170 166 170 172 169 177 178
196 269 88 254 230 198 193 194 175 199 230 235 212 198 190 184 172 182 191 181 186 199 196 194 191 184 185 186 174 173 184 185 180 177 181 183 177 167 174 179 175 177 183 185
135 113 205 237 231 180 176 202 212 220 227 195 201 198 165 165 172 189 187 180 188 204 205 190 177 176 174 166 171 180 185 184 181 178 182 178 171 177 182 175 178 187 193 196
130 162 246 285 225 160 166 241 234 197 175 152 135 63 13 6 164 186 191 182 186 183 186 168 161 160 149 158 170 177 185 187 186 183 183 181 185 191 181 174 182 188 189 195
132 153 210 234 249 207 131 251 258 175 170 164 112 114 254 268 130 112 105 131 131 106 94 103 146 145 147 162 168 189 197 196 190 186 187 191 192 190 181 181 190 186 195 202
151 182 244 249 274 125 161 228 234 174 172 163 169 194 222 345 26 35 109 101 108 104 108 132 136 136 148 167 196 202 188 185 185 189 194 192 185 179 174 178 181 190 204 214
146 171 241 273 138 170 207 201 154 153 156 147 143 121 94 87 87 92 95 94 107 110 105 91 116 131 142 202 228 179 167 178 186 188 193 185 177 177 173 175 183 195 205 223
180 206 243 260 211 226 165 149 162 151 143 130 119 105 77 66 58 63 79 86 94 111 104 69 114 143 172 230 200 162 174 185 193 186 187 186 187 185 180 183 193 201 207 221
205 270 280 302 312 17 127 150 153 133 131 123 125 127 96 72 49 44 53 77 90 100 104 63 5 192 193 211 167 163 178 189 194 196 194 192 191 189 189 193 197 201 209 221
225 263 319 332 333 6 66 79 84 85 100 125 132 140 141 116 342 43 45 23 72 118 124 7 345 346 9 88 137 148 168 181 190 203 204 198 196 197 204 211 206 201 208 209
217 223 198 241 264 191 115 107 119 112 91 99 147 164 152 169 289 312 56 52 34 27 58 34 343 331 324 44 125 158 175 200 206 208 205 200 200 220 227 224 223 218 213 207
221 226 209 232 257 152 132 137 131 133 155 180 198 167 161 184 235 286 58 86 86 340 7 335 301 313 322 336 167 190 197 208 209 207 207 207 207 211 226 240 226 220 219 212
211 114 85 205 206 205 138 131 101 74 89 183 200 166 151 163 182 185 246 229 177 171 263 254 282 303 304 315 233 229 227 223 217 214 216 212 214 217 215 211 222 240 227 217
270 173 184 189 198 207 125 106 92 69 298 269 182 172 166 167 179 204 264 337 91 50 308 330 333 301 303 281 215 243 248 249 235 223 224 222 219 216 214 212 212 221 227 227
336 28 135 145 188 202 164 149 166 226 219 190 181 187 173 163 162 155 330 28 139 264 287 282 269 273 287 304 285 262 250 247 235 216 224 223 218 215 213 210 205 202 210 218
157 246 220 223 238 241 216 204 205 219 208 189 195 178 140 122 103 309 294 280 220 246 259 261 263 267 249 216 213 232 236 236 227 216 214 216 218 217 215 214 214 207 215 211
205 215 218 215 217 226 229 202 190 192 193 194 165 137 136 147 201 262 278 289 300 304 286 272 266 254 244 236 220 220 220 229 224 221 222 219 218 209 207 215 220 220 220 203
221 223 236 234 207 182 190 208 203 187 172 148 141 152 166 186 216 251 270 306 295 292 292 283 273 265 259 252 232 210 213 218 231 242 233 212 211 207 205 219 226 226 219 211
43 34 50 31 76 128 148 175 171 158 169 152 143 146 169 220 218 239 309 298 280 274 282 286 279 273 272 262 239 177 191 217 229 248 261 236 218 223 217 223 233 236 232 228
63 59 64 55 29 36 153 161 160 161 170 151 149 174 198 229 230 178 359 300 300 300 300 288 284 280 287 274 187 152 157 204 226 227 242 256 236 230 233 240 246 245 237 231
47 62 54 77 79 3 344 90 149 155 161 159 167 181 164 165 296 331 283 264 282 301 310 298 281 284 43 108 106 120 130 145 191 236 143 244 229 224 238 251 253 257 254 243
6 35 358 17 133 316 332 305 190 168 179 189 195 197 196 209 205 190 262 280 293 317 335 326 313 86 90 82 81 100 118 128 159 253 279 257 262 257 260 266 264 262 261 252
352 346 297 19 100 99 3 304 295 194 198 212 208 200 183 178 308 275 232 263 340 9 23 31 66 84 85 56 67 80 100 102 85 52 317 304 290 277 260 267 272 269 259 248
316 313 13 123 133 167 193 88 64 61 62 56 41 33 46 141 166 280 359 80 84 65 41 34 43 57 66 68 78 80 78 77 71 84 214 274 275 269 262 250 242 250 255 248
1 36 66 153 163 151 126 97 83 66 65 53 22 23 36 40 50 52 57 67 65 55 36 26 36 43 51 59 62 66 70 63 46 19 341 314 286 276 272 272 254 235 230 234
44 50 54 48 45 61 74 81 88 76 76 91 58 26 40 44 47 50 55 59 58 52 44 41 46 52 53 50 49 47 50 45 21 347 340 341 351 335 303 281 193 142 150 155